Powrót do katalogu

ONEWEB-0556

AktywnyŁącznośćPO
NORAD 55798·PAYLOAD·🇬🇧 United Kingdom

Wystrzelony Mar 9, 2023 z Cape Canaveral Space Force Station

Loading…

Następne Przeloty (najbliższe 24 godziny)

TLE

ŚwieżeSource: CelesTrak SupGP

Epoka: Sep 14, 2026, 17:28 UTC

1 55798C 23029C   26257.72829120 -.00000435  00000+0 -10722-2 0  2577
2 55798  87.9125 256.5985 0002889  90.2176  19.7887 13.20769447    14

Śledź ONEWEB-0556 w czasie rzeczywistym z AllMySat

Download on the App Store